TimeCST,TemperatureF,Dew PointF,Humidity,Sea Level PressureIn,VisibilityMPH,Wind Direction,Wind SpeedMPH,Gust SpeedMPH,PrecipitationIn,Events,Conditions,WindDirDegrees,DateUTC
12:15 AM,23.0,15.8,74,30.12,10.0,SSW,12.7,-,N/A,,Overcast,200,2013-02-02 06:15:00
12:35 AM,23.0,15.8,74,30.11,10.0,SSW,12.7,19.6,N/A,,Overcast,200,2013-02-02 06:35:00
12:55 AM,23.0,15.8,74,30.10,10.0,SSW,12.7,-,N/A,,Overcast,200,2013-02-02 06:55:00
1:15 AM,24.8,15.8,69,30.09,10.0,SSW,12.7,-,N/A,,Overcast,200,2013-02-02 07:15:00
1:35 AM,24.8,15.8,69,30.08,10.0,SSW,12.7,19.6,N/A,,Overcast,210,2013-02-02 07:35:00
1:55 AM,24.8,15.8,69,30.07,10.0,SSW,11.5,18.4,N/A,,Overcast,200,2013-02-02 07:55:00
2:15 AM,24.8,15.8,69,30.07,10.0,SSW,12.7,-,N/A,,Overcast,210,2013-02-02 08:15:00
2:35 AM,24.8,15.8,69,30.07,10.0,SSW,10.4,19.6,N/A,,Overcast,210,2013-02-02 08:35:00
2:55 AM,24.8,15.8,69,30.06,10.0,SW,11.5,-,N/A,,Overcast,220,2013-02-02 08:55:00
3:15 AM,24.8,15.8,69,30.05,10.0,SW,10.4,-,N/A,,Overcast,220,2013-02-02 09:15:00
3:35 AM,24.8,15.8,69,30.05,10.0,SW,9.2,-,N/A,,Overcast,230,2013-02-02 09:35:00
3:55 AM,24.8,15.8,69,30.04,7.0,WSW,12.7,18.4,N/A,,Overcast,240,2013-02-02 09:55:00
4:15 AM,24.8,19.4,80,30.04,1.5,SW,8.1,-,N/A,Snow,Light Snow,230,2013-02-02 10:15:00
4:35 AM,24.8,21.2,86,30.03,2.0,SW,9.2,-,N/A,Snow,Light Snow,220,2013-02-02 10:35:00
4:55 AM,24.8,21.2,86,30.03,5.0,SW,9.2,-,N/A,Snow,Light Snow,220,2013-02-02 10:55:00
5:15 AM,24.8,21.2,86,30.03,10.0,SW,9.2,-,N/A,,Overcast,230,2013-02-02 11:15:00
5:35 AM,24.8,21.2,86,30.03,10.0,WSW,10.4,-,N/A,,Overcast,240,2013-02-02 11:35:00
6:15 AM,24.8,21.2,86,30.04,10.0,WSW,5.8,-,N/A,,Scattered Clouds,240,2013-02-02 12:15:00
6:35 AM,24.8,21.2,86,30.04,10.0,WSW,8.1,-,N/A,,Clear,250,2013-02-02 12:35:00
6:55 AM,24.8,19.4,80,30.05,10.0,West,5.8,-,N/A,,Scattered Clouds,260,2013-02-02 12:55:00
7:15 AM,24.8,19.4,80,30.05,10.0,West,6.9,-,N/A,,Mostly Cloudy,260,2013-02-02 13:15:00
7:35 AM,24.8,19.4,80,30.05,10.0,West,11.5,-,N/A,,Overcast,280,2013-02-02 13:35:00
7:55 AM,24.8,19.4,80,30.05,10.0,WNW,13.8,19.6,N/A,,Mostly Cloudy,290,2013-02-02 13:55:00
8:35 AM,24.8,19.4,80,30.07,10.0,NW,21.9,27.6,N/A,,Mostly Cloudy,310,2013-02-02 14:35:00
8:55 AM,23.0,17.6,80,30.08,10.0,NW,15.0,-,N/A,,Mostly Cloudy,310,2013-02-02 14:55:00
9:15 AM,23.0,17.6,80,30.09,10.0,NW,17.3,24.2,N/A,,Overcast,320,2013-02-02 15:15:00
9:35 AM,21.2,15.8,80,30.10,10.0,NW,19.6,27.6,N/A,,Overcast,320,2013-02-02 15:35:00
9:55 AM,21.2,15.8,80,30.11,10.0,NW,17.3,23.0,N/A,,Overcast,320,2013-02-02 15:55:00
10:15 AM,21.2,15.8,80,30.12,10.0,NW,15.0,23.0,N/A,,Overcast,310,2013-02-02 16:15:00
10:35 AM,21.2,15.8,80,30.12,10.0,NNW,13.8,-,N/A,,Overcast,330,2013-02-02 16:35:00
10:55 AM,21.2,14.0,74,30.13,10.0,NNW,15.0,-,N/A,,Overcast,330,2013-02-02 16:55:00
11:15 AM,19.4,12.2,74,30.14,10.0,NW,13.8,20.7,N/A,Snow,Light Snow,320,2013-02-02 17:15:00
11:35 AM,19.4,12.2,74,30.13,10.0,NW,15.0,-,N/A,,Overcast,320,2013-02-02 17:35:00
11:55 AM,19.4,14.0,80,30.14,10.0,NW,15.0,-,N/A,,Overcast,320,2013-02-02 17:55:00
12:15 PM,21.2,12.2,68,30.14,10.0,NW,15.0,19.6,N/A,,Overcast,310,2013-02-02 18:15:00
12:35 PM,21.2,12.2,68,30.13,10.0,WNW,15.0,18.4,N/A,,Overcast,300,2013-02-02 18:35:00
12:55 PM,19.4,12.2,74,30.13,10.0,NW,11.5,-,N/A,,Overcast,320,2013-02-02 18:55:00
1:15 PM,19.4,12.2,74,30.12,10.0,NW,13.8,-,N/A,,Overcast,310,2013-02-02 19:15:00
1:35 PM,21.2,12.2,68,30.13,10.0,NW,12.7,18.4,N/A,,Overcast,320,2013-02-02 19:35:00
1:55 PM,19.4,12.2,74,30.13,10.0,NW,11.5,17.3,N/A,,Mostly Cloudy,310,2013-02-02 19:55:00
2:15 PM,19.4,12.2,74,30.13,10.0,NW,15.0,18.4,N/A,,Scattered Clouds,310,2013-02-02 20:15:00
2:35 PM,19.4,12.2,74,30.14,10.0,WNW,11.5,-,N/A,,Mostly Cloudy,300,2013-02-02 20:35:00
2:55 PM,21.2,12.2,68,30.13,10.0,NW,12.7,-,N/A,,Mostly Cloudy,310,2013-02-02 20:55:00
3:15 PM,21.2,12.2,68,30.13,10.0,WNW,12.7,-,N/A,,Overcast,300,2013-02-02 21:15:00
3:35 PM,19.4,12.2,74,30.14,10.0,NW,11.5,16.1,N/A,,Overcast,310,2013-02-02 21:35:00
3:55 PM,19.4,12.2,74,30.15,10.0,NW,11.5,-,N/A,,Overcast,310,2013-02-02 21:55:00
4:15 PM,19.4,12.2,74,30.15,10.0,NW,10.4,-,N/A,,Overcast,320,2013-02-02 22:15:00
4:35 PM,19.4,10.4,68,30.14,10.0,WNW,11.5,-,N/A,,Mostly Cloudy,290,2013-02-02 22:35:00
4:55 PM,19.4,8.6,63,30.15,10.0,NW,13.8,19.6,N/A,,Mostly Cloudy,310,2013-02-02 22:55:00
5:15 PM,19.4,8.6,63,30.14,10.0,NW,9.2,-,N/A,,Mostly Cloudy,310,2013-02-02 23:15:00
5:35 PM,17.6,8.6,68,30.15,10.0,WNW,8.1,-,N/A,,Mostly Cloudy,300,2013-02-02 23:35:00
5:55 PM,19.4,10.4,68,30.14,10.0,NW,4.6,-,N/A,,Mostly Cloudy,310,2013-02-02 23:55:00
6:15 PM,17.6,10.4,73,30.13,10.0,WNW,6.9,-,N/A,,Overcast,300,2013-02-03 00:15:00
6:35 PM,17.6,8.6,68,30.12,10.0,NW,5.8,-,N/A,,Overcast,310,2013-02-03 00:35:00
6:55 PM,17.6,10.4,73,30.13,10.0,WNW,4.6,-,N/A,,Overcast,300,2013-02-03 00:55:00
7:15 PM,17.6,8.6,68,30.12,10.0,WNW,3.5,-,N/A,,Overcast,300,2013-02-03 01:15:00
7:35 PM,19.4,10.4,68,30.11,10.0,Calm,Calm,-,N/A,,Overcast,0,2013-02-03 01:35:00
7:55 PM,19.4,10.4,68,30.10,10.0,Calm,Calm,-,N/A,,Overcast,0,2013-02-03 01:55:00
8:15 PM,19.4,8.6,63,30.10,10.0,Calm,Calm,-,N/A,,Overcast,0,2013-02-03 02:15:00
8:35 PM,17.6,12.2,79,30.11,1.5,WSW,3.5,-,N/A,Snow,Light Snow,250,2013-02-03 02:35:00
8:55 PM,17.6,14.0,86,30.10,1.8,Calm,Calm,-,N/A,Snow,Light Snow,0,2013-02-03 02:55:00
9:15 PM,17.6,15.8,93,30.09,3.0,Calm,Calm,-,N/A,Snow,Light Snow,0,2013-02-03 03:15:00
9:35 PM,17.6,15.8,93,30.08,10.0,Calm,Calm,-,N/A,Snow,Light Snow,0,2013-02-03 03:35:00
9:55 PM,17.6,15.8,93,30.07,4.0,Calm,Calm,-,N/A,Snow,Light Snow,0,2013-02-03 03:55:00
10:15 PM,17.6,15.8,93,30.06,1.8,Calm,Calm,-,N/A,Snow,Light Snow,0,2013-02-03 04:15:00
10:35 PM,17.6,17.6,100,30.04,4.0,Calm,Calm,-,N/A,Snow,Light Snow,0,2013-02-03 04:35:00
10:55 PM,17.6,17.6,100,30.04,10.0,Calm,Calm,-,N/A,,Overcast,0,2013-02-03 04:55:00
11:15 PM,17.6,17.6,100,30.03,10.0,South,3.5,-,N/A,,Overcast,170,2013-02-03 05:15:00
11:35 PM,17.6,17.6,100,30.02,10.0,Calm,Calm,-,N/A,,Overcast,0,2013-02-03 05:35:00
11:55 PM,19.4,17.6,93,30.02,7.0,SSE,3.5,-,N/A,Snow,Light Snow,150,2013-02-03 05:55:00